Location: WHS+Essen
(51.3947°N, 6.9794°E)
Time: 09:30:46
(UTC+02:00)

ISS - Visible Passes

Search period start: 21 September 2018 00:00
Search period end: 01 October 2018 00:00
Orbit: 403 x 408 km, 51.6° (Epoch: 21 September)

Date Brightness Start Highest point End Pass type
(mag) Time Alt. Az. Time Alt. Az. Time Alt. Az.
23 Sep -2.5 21:10:11 10° SSW 21:12:20 25° S 21:12:20 25° S visible
24 Sep -2.2 20:18:58 10° S 20:21:22 19° SE 20:22:55 14° ESE visible
24 Sep -1.8 21:54:11 10° WSW 21:55:36 23° WSW 21:55:36 23° WSW visible
25 Sep -3.5 21:02:27 10° SW 21:05:37 47° SSE 21:06:00 44° SE visible
26 Sep -2.9 20:10:50 10° SW 20:13:50 32° SSE 20:16:18 13° E visible
26 Sep -2.5 21:46:49 10° WSW 21:48:59 38° WSW 21:48:59 38° WSW visible
27 Sep -3.9 20:54:57 10° WSW 20:58:14 71° SSE 20:59:10 43° E visible
27 Sep -0.6 22:31:26 10° W 22:31:50 13° W 22:31:50 13° W visible
28 Sep -3.5 20:03:08 10° SW 20:06:21 53° SSE 20:09:17 12° E visible
28 Sep -2.8 21:39:30 10° W 21:41:57 46° W 21:41:57 46° W visible
29 Sep -3.9 20:47:33 10° W 20:50:52 89° N 20:52:00 38° E visible
29 Sep -0.7 22:24:06 10° W 22:24:40 14° W 22:24:40 14° W visible
30 Sep -3.8 19:55:37 10° WSW 19:58:55 78° SSE 20:02:01 11° E visible
30 Sep -3.0 21:32:08 10° W 21:34:41 50° W 21:34:41 50° W visible
